Simultaneous Nadir Overpasses (SNOs) Predictions

Prediction of SNOs between AQUA and METOP-B Satellite Orbit:

Table of predicted SNOs for the next 14.0 days since TLE Epoch: 5/11/2024
Index Date (AQUA) Time (AQUA) Lat,Lon (AQUA) SZA (AQUA ) Date (METOP-B) Time (METOP-B) Lat,Lon (METOP-B) SZA (METOP-B ) Distance(km) Time Diff (sec)
1 05/12/2024 20:38:07 75.66,-132.26 57.17 05/12/2024 20:37:17 75.67,-132.32 57.18 2.20 50
2 05/12/2024 21:27:30 -75.75, 35.14 122.75 05/12/2024 21:27:57 -75.74, 35.22 122.76 2.33 27
3 05/15/2024 11:59:25 -75.52, 177.87 123.61 05/15/2024 11:58:14 -75.46, 176.77 123.66 31.24 71
4 05/15/2024 12:48:52 75.72, -15.06 56.58 05/15/2024 12:48:48 75.74, -15.04 56.61 2.24 4
5 05/15/2024 13:38:15 -75.80, 152.33 123.34 05/15/2024 13:39:28 -75.81, 152.52 123.34 5.10 73
6 05/18/2024 04:10:07 -75.70, -65.28 124.03 05/18/2024 04:09:41 -75.73, -65.29 123.99 3.59 26
7 05/18/2024 04:59:31 75.76, 102.21 56.03 05/18/2024 05:00:20 75.77, 102.16 56.04 1.87 49
8 05/20/2024 19:31:18 75.72,-115.60 55.45 05/20/2024 19:30:32 75.71,-115.59 55.43 1.91 46
9 05/20/2024 20:20:40 -75.77, 51.93 124.52 05/20/2024 20:21:12 -75.79, 51.99 124.50 2.59 32
10 05/23/2024 10:52:20 -75.71,-165.76 125.09 05/23/2024 10:51:24 -75.70,-165.85 125.09 2.37 56
11 05/23/2024 11:41:44 75.78, 1.68 54.98 05/23/2024 11:42:02 75.78, 1.73 54.98 1.17 18



Historial Predications of SNOs between AQUA and METOP-B
